,,Stat6,,Stat2,,Stat8,,Stat9,,Stat10,,Wind1,,Wind1,
time,status,PA1M_AVG,status,PR1M_SUM,status,RH1M_AVG,status,SR1M_AVG,status,TA1M_AVG,status,W1dAve1m,status,W1sAve1m,
2005-04-03, 00:00:00,VALID,918.268,VALID,0,VALID,93.7656,VALID,0,VALID,19.624,VALID,67,VALID,0.0416667,
2005-04-03, 00:01:00,VALID,918.274,VALID,0,VALID,93.6168,VALID,-0.0339617,VALID,19.6597,VALID,67,VALID,0,
2005-04-03, 00:02:00,VALID,918.263,VALID,0,VALID,93.9601,VALID,0,VALID,19.7047,VALID,67,VALID,0.0898438,
2005-04-03, 00:03:00,VALID,918.253,VALID,0,VALID,93.4553,VALID,0.0169808,VALID,19.7338,VALID,67,VALID,0,
2005-04-03, 00:04:00,VALID,918.238,VALID,0,VALID,92.8602,VALID,0,VALID,19.7271,VALID,60,VALID,0.220203,
2005-04-03, 00:05:00,VALID,918.217,VALID,0,VALID,93.4553,VALID,-0.0339617,VALID,19.7405,VALID,57,VALID,0.270349,
2005-04-03, 00:06:00,VALID,918.203,VALID,0,VALID,93.2607,VALID,-0.0339617,VALID,19.7308,VALID,57,VALID,0.412016,
2005-04-03, 00:07:00,VALID,918.181,VALID,0,VALID,93.0929,VALID,-0.0169808,VALID,19.7109,VALID,57,VALID,0.394531,
2005-04-03, 00:08:00,VALID,918.147,VALID,0,VALID,93.2849,VALID,0,VALID,19.7276,VALID,57,VALID,0.241642,
2005-04-03, 00:09:00,VALID,918.128,VALID,0,VALID,92.9899,VALID,-0.0509425,VALID,19.7343,VALID,57,VALID,0.133168,
2005-04-03, 00:10:00,VALID,918.104,VALID,0,VALID,91.8683,VALID,-0.0169808,VALID,19.7117,VALID,57,VALID,0.199491,
2005-04-03, 00:11:00,VALID,918.081,VALID,0,VALID,91.3877,VALID,-0.0339617,VALID,19.6786,VALID,57,VALID,0.311547,
2005-04-03, 00:12:00,VALID,918.059,VALID,0,VALID,91.2287,VALID,0,VALID,19.6824,VALID,57,VALID,0.38244,
2005-04-03, 00:13:00,VALID,918.05,VALID,0,VALID,90.8714,VALID,-0.0169808,VALID,19.6826,VALID,62,VALID,0.536395,
2005-04-03, 00:14:00,VALID,918.023,VALID,0,VALID,90.7773,VALID,0,VALID,19.6886,VALID,76,VALID,0.715843,
2005-04-03, 00:15:00,VALID,918.022,VALID,0,VALID,90.8778,VALID,0,VALID,19.7089,VALID,89,VALID,0.652616,
2005-04-03, 00:16:00,VALID,918.007,VALID,0,VALID,91.3864,VALID,0,VALID,19.6918,VALID,89,VALID,0.693314,
2005-04-03, 00:17:00,VALID,917.987,VALID,0,VALID,91.9497,VALID,-0.0339617,VALID,19.692,VALID,89,VALID,0.732922,
2005-04-03, 00:18:00,VALID,917.965,VALID,0,VALID,92.1494,VALID,-0.0339617,VALID,19.6987,VALID,89,VALID,0.601732,
2005-04-03, 00:19:00,VALID,917.953,VALID,0,VALID,92.4151,VALID,0,VALID,19.6749,VALID,89,VALID,0.488814,
2005-04-03, 00:20:00,VALID,917.935,VALID,0,VALID,92.5232,VALID,0.0169808,VALID,19.6622,VALID,89,VALID,0.323475,
2005-04-03, 00:21:00,VALID,917.92,VALID,0,VALID,93.0242,VALID,0.0339617,VALID,19.6593,VALID,89,VALID,0.0784884,
2005-04-03, 00:22:00,VALID,917.896,VALID,0,VALID,93.8075,VALID,0,VALID,19.6632,VALID,82,VALID,0.240282,
2005-04-03, 00:23:00,VALID,917.888,VALID,0,VALID,94.3963,VALID,0,VALID,19.5979,VALID,56,VALID,0.928544,
2005-04-03, 00:24:00,VALID,917.882,VALID,0,VALID,94.2513,VALID,0,VALID,19.5107,VALID,54,VALID,0.696733,
2005-04-03, 00:25:00,VALID,917.866,VALID,0,VALID,93.7185,VALID,0,VALID,19.4588,VALID,54,VALID,0.495908,
2005-04-03, 00:26:00,VALID,917.865,VALID,0,VALID,93.2124,VALID,0.0339617,VALID,19.4325,VALID,60,VALID,0.5,
2005-04-03, 00:27:00,VALID,917.848,VALID,0,VALID,92.761,VALID,0.0169808,VALID,19.4265,VALID,76,VALID,0.804874,
2005-04-03, 00:28:00,VALID,917.828,VALID,0,VALID,92.5512,VALID,0.0339617,VALID,19.4166,VALID,87,VALID,1.00234,
2005-04-03, 00:29:00,VALID,917.808,VALID,0,VALID,92.4469,VALID,0.0339617,VALID,19.4397,VALID,87,VALID,0.92207,
2005-04-03, 00:30:00,VALID,917.797,VALID,0,VALID,93.1552,VALID,-0.0169808,VALID,19.4298,VALID,92,VALID,0.950174,
2005-04-03, 00:31:00,VALID,917.796,VALID,0,VALID,93.4362,VALID,0,VALID,19.4201,VALID,110,VALID,0.861806,
2005-04-03, 00:32:00,VALID,917.768,VALID,0,VALID,93.2747,VALID,0,VALID,19.4171,VALID,111,VALID,0.857143,
2005-04-03, 00:33:00,VALID,917.754,VALID,0,VALID,93.6079,VALID,-0.0169808,VALID,19.4268,VALID,111,VALID,0.95419,
2005-04-03, 00:34:00,VALID,917.715,VALID,0,VALID,94.4128,VALID,0,VALID,19.4367,VALID,103,VALID,0.897135,
2005-04-03, 00:35:00,VALID,917.683,VALID,0,VALID,95.0626,VALID,0.0169808,VALID,19.43,VALID,107,VALID,0.737537,
2005-04-03, 00:36:00,VALID,917.66,VALID,0,VALID,95.4975,VALID,0,VALID,19.43,VALID,107,VALID,0.561719,
2005-04-03, 00:37:00,VALID,917.619,VALID,0,VALID,95.7226,VALID,0,VALID,19.4141,VALID,107,VALID,0.520419,
2005-04-03, 00:38:00,VALID,917.595,VALID,0,VALID,95.8663,VALID,0,VALID,19.4173,VALID,107,VALID,0.382813,
2005-04-03, 00:39:00,VALID,917.564,VALID,0,VALID,95.7162,VALID,0,VALID,19.4243,VALID,107,VALID,0.271949,
2005-04-03, 00:40:00,VALID,917.53,VALID,0,VALID,95.7162,VALID,0,VALID,19.4139,VALID,107,VALID,0.143895,
2005-04-03, 00:41:00,VALID,917.521,VALID,0,VALID,95.6819,VALID,0,VALID,19.4201,VALID,107,VALID,0.00186012,
2005-04-03, 00:42:00,VALID,917.514,VALID,0,VALID,95.6704,VALID,0,VALID,19.4367,VALID,107,VALID,0,
2005-04-03, 00:43:00,VALID,917.528,VALID,0,VALID,95.6094,VALID,0,VALID,19.4397,VALID,107,VALID,0.00121528,
2005-04-03, 00:44:00,VALID,917.51,VALID,0,VALID,95.7238,VALID,0,VALID,19.424,VALID,107,VALID,0,
2005-04-03, 00:45:00,VALID,917.522,VALID,0,VALID,95.9845,VALID,0,VALID,19.4141,VALID,106,VALID,0.382994,
2005-04-03, 00:46:00,VALID,917.526,VALID,0,VALID,96.0138,VALID,0,VALID,19.4076,VALID,105,VALID,0.489955,
2005-04-03, 00:47:00,VALID,917.536,VALID,0,VALID,95.9248,VALID,0,VALID,19.3749,VALID,105,VALID,0.210175,
2005-04-03, 00:48:00,VALID,917.545,VALID,0,VALID,96.0201,VALID,0,VALID,19.3654,VALID,105,VALID,0.0010016,
2005-04-03, 00:49:00,VALID,917.529,VALID,0,VALID,96.0265,VALID,-0.0509425,VALID,19.3565,VALID,105,VALID,0,
2005-04-03, 00:50:00,VALID,917.541,VALID,0,VALID,96.1104,VALID,-0.101885,VALID,19.3537,VALID,105,VALID,0,
2005-04-03, 00:51:00,VALID,917.543,VALID,0,VALID,96.0087,VALID,-0.0509425,VALID,19.3575,VALID,105,VALID,0,
2005-04-03, 00:52:00,VALID,917.548,VALID,0,VALID,95.6323,VALID,-0.0679233,VALID,19.3796,VALID,105,VALID,0,
2005-04-03, 00:53:00,VALID,917.545,VALID,0,VALID,95.1389,VALID,-0.0849042,VALID,19.4116,VALID,105,VALID,0,
2005-04-03, 00:54:00,VALID,917.55,VALID,0,VALID,94.8731,VALID,-0.101885,VALID,19.4474,VALID,105,VALID,0.340972,
2005-04-03, 00:55:00,VALID,917.527,VALID,0,VALID,94.7574,VALID,-0.0849042,VALID,19.4762,VALID,79,VALID,1.05259,
2005-04-03, 00:56:00,VALID,917.525,VALID,0,VALID,94.76,VALID,-0.101885,VALID,19.5216,VALID,64,VALID,1.04611,
2005-04-03, 00:57:00,VALID,917.53,VALID,0,VALID,94.6455,VALID,-0.0679233,VALID,19.5445,VALID,61,VALID,0.52983,
2005-04-03, 00:58:00,VALID,917.523,VALID,0,VALID,94.7206,VALID,-0.0509425,VALID,19.5601,VALID,61,VALID,0.118278,
2005-04-03, 00:59:00,VALID,917.514,VALID,0,VALID,94.2412,VALID,-0.0509425,VALID,19.5572,VALID,61,VALID,0.0348837,
2005-04-03, 01:00:00,VALID,917.484,VALID,0,VALID,93.9372,VALID,-0.0849042,VALID,19.5604,VALID,61,VALID,0,
2005-04-03, 01:01:00,VALID,917.465,VALID,0,VALID,93.9805,VALID,-0.0679233,VALID,19.5736,VALID,61,VALID,0,
2005-04-03, 01:02:00,VALID,917.437,VALID,0,VALID,94.3353,VALID,-0.0849042,VALID,19.6058,VALID,61,VALID,0.420117,
2005-04-03, 01:03:00,VALID,917.413,VALID,0,VALID,94.6366,VALID,-0.0849042,VALID,19.6185,VALID,61,VALID,0.681323,
2005-04-03, 01:04:00,VALID,917.412,VALID,0,VALID,94.5756,VALID,0.0339617,VALID,19.614,VALID,61,VALID,0.833031,
2005-04-03, 01:05:00,VALID,917.42,VALID,0,VALID,94.0873,VALID,0.0509425,VALID,19.5746,VALID,67,VALID,0.614453,
2005-04-03, 01:06:00,VALID,917.415,VALID,0,VALID,93.9779,VALID,0.0339617,VALID,19.5487,VALID,68,VALID,0.302912,
2005-04-03, 01:07:00,VALID,917.415,VALID,0,VALID,94.6176,VALID,0,VALID,19.5527,VALID,68,VALID,0.203852,
2005-04-03, 01:08:00,VALID,917.396,VALID,0,VALID,95.0575,VALID,0.0169808,VALID,19.5428,VALID,68,VALID,0.0924782,
2005-04-03, 01:09:00,VALID,917.375,VALID,0,VALID,95.2813,VALID,0.0339617,VALID,19.5299,VALID,68,VALID,0.381138,
2005-04-03, 01:10:00,VALID,917.346,VALID,0,VALID,95.2979,VALID,0.0339617,VALID,19.5075,VALID,70,VALID,0.591082,
2005-04-03, 01:11:00,VALID,917.323,VALID,0,VALID,95.4238,VALID,0.0509425,VALID,19.4819,VALID,91,VALID,0.62309,
2005-04-03, 01:12:00,VALID,917.295,VALID,0,VALID,96.0214,VALID,0.0679233,VALID,19.4526,VALID,96,VALID,0.539595,
2005-04-03, 01:13:00,VALID,917.27,VALID,0,VALID,96.3126,VALID,0.0339617,VALID,19.4265,VALID,105,VALID,0.724516,
2005-04-03, 01:14:00,VALID,917.25,VALID,0,VALID,95.4047,VALID,0,VALID,19.3746,VALID,106,VALID,0.789971,
2005-04-03, 01:15:00,VALID,917.229,VALID,0,VALID,95.3691,VALID,0.0679233,VALID,19.3781,VALID,81,VALID,0.86101,
2005-04-03, 01:16:00,VALID,917.222,VALID,0,VALID,95.6654,VALID,0.0339617,VALID,19.3848,VALID,51,VALID,0.874455,
2005-04-03, 01:17:00,VALID,917.227,VALID,0,VALID,95.6577,VALID,0.0339617,VALID,19.3721,VALID,49,VALID,0.90253,
2005-04-03, 01:18:00,VALID,917.212,VALID,0,VALID,95.617,VALID,0.0339617,VALID,19.3689,VALID,45,VALID,0.785156,
2005-04-03, 01:19:00,VALID,917.216,VALID,0,VALID,95.6221,VALID,-0.0849042,VALID,19.3475,VALID,40,VALID,0.606957,
2005-04-03, 01:20:00,VALID,917.209,VALID,0,VALID,95.3029,VALID,-0.0849042,VALID,19.3344,VALID,40,VALID,0.434411,
2005-04-03, 01:21:00,VALID,917.206,VALID,0,VALID,94.1916,VALID,-0.101885,VALID,19.3321,VALID,40,VALID,0.384301,
2005-04-03, 01:22:00,VALID,917.21,VALID,0,VALID,93.2582,VALID,-0.101885,VALID,19.3383,VALID,40,VALID,0.407439,
2005-04-03, 01:23:00,VALID,917.191,VALID,0,VALID,92.2218,VALID,-0.101885,VALID,19.3671,VALID,40,VALID,0.586483,
2005-04-03, 01:24:00,VALID,917.18,VALID,0,VALID,91.4576,VALID,-0.0849042,VALID,19.3994,VALID,40,VALID,0.738281,
2005-04-03, 01:25:00,VALID,917.202,VALID,0,VALID,90.9858,VALID,-0.101885,VALID,19.4543,VALID,40,VALID,0.799782,
2005-04-03, 01:26:00,VALID,917.214,VALID,0,VALID,91.3483,VALID,-0.101885,VALID,19.4901,VALID,40,VALID,0.572443,
2005-04-03, 01:27:00,VALID,917.209,VALID,0,VALID,91.5899,VALID,-0.101885,VALID,19.5321,VALID,40,VALID,0.0845486,
2005-04-03, 01:28:00,VALID,917.211,VALID,0,VALID,92.1341,VALID,-0.101885,VALID,19.541,VALID,40,VALID,0.0743096,
2005-04-03, 01:29:00,VALID,917.203,VALID,0,VALID,92.4062,VALID,-0.101885,VALID,19.545,VALID,42,VALID,0.509337,
2005-04-03, 01:30:00,VALID,917.209,VALID,0,VALID,92.7725,VALID,-0.101885,VALID,19.506,VALID,91,VALID,0.68821,
2005-04-03, 01:31:00,VALID,917.214,VALID,0,VALID,92.0349,VALID,-0.101885,VALID,19.4608,VALID,115,VALID,0.834375,
2005-04-03, 01:32:00,VALID,917.21,VALID,0,VALID,91.1359,VALID,-0.118866,VALID,19.4347,VALID,115,VALID,0.874653,
2005-04-03, 01:33:00,VALID,917.193,VALID,0,VALID,90.9719,VALID,-0.101885,VALID,19.4744,VALID,114,VALID,1.04942,
2005-04-03, 01:34:00,VALID,917.184,VALID,0,VALID,91.1918,VALID,-0.0169808,VALID,19.5023,VALID,109,VALID,0.861793,
2005-04-03, 01:35:00,VALID,917.17,VALID,0,VALID,91.3127,VALID,0,VALID,19.5147,VALID,108,VALID,0.704545,
2005-04-03, 01:36:00,VALID,917.165,VALID,0,VALID,91.0621,VALID,0,VALID,19.5336,VALID,108,VALID,0.556286,
2005-04-03, 01:37:00,VALID,917.133,VALID,0,VALID,90.6883,VALID,0,VALID,19.5502,VALID,108,VALID,0.540206,
2005-04-03, 01:38:00,VALID,917.112,VALID,0,VALID,90.9388,VALID,0,VALID,19.5691,VALID,112,VALID,0.67223,
2005-04-03, 01:39:00,VALID,917.066,VALID,0,VALID,90.0792,VALID,0.0509425,VALID,19.5823,VALID,112,VALID,0.726004,
2005-04-03, 01:40:00,VALID,917.036,VALID,0,VALID,89.6825,VALID,0,VALID,19.618,VALID,112,VALID,0.523828,
2005-04-03, 01:41:00,VALID,917.01,VALID,0,VALID,90.4683,VALID,0,VALID,19.6304,VALID,112,VALID,0.253299,
2005-04-03, 01:42:00,VALID,916.993,VALID,0,VALID,91.3495,VALID,0,VALID,19.6362,VALID,112,VALID,0.292067,
2005-04-03, 01:43:00,VALID,916.981,VALID,0,VALID,92.5194,VALID,0,VALID,19.6364,VALID,146,VALID,0.806641,
2005-04-03, 01:44:00,VALID,916.96,VALID,0,VALID,93.8737,VALID,-0.0169808,VALID,19.618,VALID,160,VALID,0.672215,
2005-04-03, 01:45:00,VALID,916.918,VALID,0,VALID,94.451,VALID,0,VALID,19.5654,VALID,160,VALID,0.360119,
2005-04-03, 01:46:00,VALID,916.903,VALID,0,VALID,95.1771,VALID,0,VALID,19.5438,VALID,160,VALID,0.316134,
2005-04-03, 01:47:00,VALID,916.884,VALID,0,VALID,95.5509,VALID,0.0169808,VALID,19.4884,VALID,159,VALID,0.25465,
2005-04-03, 01:48:00,VALID,916.864,VALID,0,VALID,95.8408,VALID,-0.0169808,VALID,19.4688,VALID,160,VALID,0.307664,
2005-04-03, 01:49:00,VALID,916.85,VALID,0,VALID,96.188,VALID,0,VALID,19.4635,VALID,159,VALID,0.340774,
2005-04-03, 01:50:00,VALID,916.836,VALID,0,VALID,96.3431,VALID,0,VALID,19.4178,VALID,135,VALID,0.578658,
2005-04-03, 01:51:00,VALID,916.824,VALID,0,VALID,96.0583,VALID,0,VALID,19.3458,VALID,104,VALID,0.648438,
2005-04-03, 01:52:00,VALID,916.8,VALID,0,VALID,95.893,VALID,-0.0509425,VALID,19.3078,VALID,102,VALID,0.368403,
2005-04-03, 01:53:00,VALID,916.78,VALID,0,VALID,96.0812,VALID,0,VALID,19.2822,VALID,102,VALID,0.0368304,
2005-04-03, 01:54:00,VALID,916.771,VALID,0,VALID,96.1905,VALID,0,VALID,19.2762,VALID,102,VALID,0.000190549,
2005-04-03, 01:55:00,VALID,916.753,VALID,0,VALID,96.3978,VALID,0,VALID,19.2661,VALID,102,VALID,0.14375,
2005-04-03, 01:56:00,VALID,916.726,VALID,0,VALID,96.3368,VALID,0,VALID,19.2559,VALID,102,VALID,0.434766,
2005-04-03, 01:57:00,VALID,916.71,VALID,0,VALID,96.2503,VALID,0,VALID,19.2559,VALID,106,VALID,0.673018,
2005-04-03, 01:58:00,VALID,916.7,VALID,0,VALID,95.4009,VALID,0,VALID,19.2497,VALID,118,VALID,0.769727,
2005-04-03, 01:59:00,VALID,916.678,VALID,0,VALID,95.0105,VALID,-0.0169808,VALID,19.2529,VALID,118,VALID,0.532292,
2005-04-03, 02:00:00,VALID,916.656,VALID,0,VALID,93.3103,VALID,0.0169808,VALID,19.2561,VALID,118,VALID,0.781977,
2005-04-03, 02:01:00,VALID,916.63,VALID,0,VALID,92.6008,VALID,0.0169808,VALID,19.2884,VALID,102,VALID,0.831143,
2005-04-03, 02:02:00,VALID,916.612,VALID,0,VALID,92.3401,VALID,0,VALID,19.3396,VALID,86,VALID,0.590799,
2005-04-03, 02:03:00,VALID,916.617,VALID,0,VALID,92.8322,VALID,0.0339617,VALID,19.3883,VALID,86,VALID,0.158067,
2005-04-03, 02:04:00,VALID,916.599,VALID,0,VALID,92.5448,VALID,0.0169808,VALID,19.4144,VALID,86,VALID,0.286133,
2005-04-03, 02:05:00,VALID,916.584,VALID,0,VALID,91.5568,VALID,-0.0169808,VALID,19.4014,VALID,87,VALID,0.566939,
2005-04-03, 02:06:00,VALID,916.562,VALID,0,VALID,91.2974,VALID,0.0169808,VALID,19.4171,VALID,96,VALID,0.706321,
2005-04-03, 02:07:00,VALID,916.547,VALID,0,VALID,91.4055,VALID,-0.0339617,VALID,19.4533,VALID,102,VALID,0.509487,
2005-04-03, 02:08:00,VALID,916.53,VALID,0,VALID,92.2536,VALID,0,VALID,19.4854,VALID,102,VALID,0.336483,
2005-04-03, 02:09:00,VALID,916.521,VALID,0,VALID,92.9594,VALID,0,VALID,19.5015,VALID,102,VALID,0.403832,
2005-04-03, 02:10:00,VALID,916.516,VALID,0,VALID,93.2824,VALID,0,VALID,19.5117,VALID,102,VALID,0.629607,
2005-04-03, 02:11:00,VALID,916.5,VALID,0,VALID,93.2722,VALID,0.0169808,VALID,19.4886,VALID,102,VALID,0.35902,
2005-04-03, 02:12:00,VALID,916.496,VALID,0,VALID,93.3409,VALID,0,VALID,19.5018,VALID,102,VALID,0.0904018,
2005-04-03, 02:13:00,VALID,916.48,VALID,0,VALID,92.8284,VALID,0,VALID,19.4688,VALID,102,VALID,0.24657,
2005-04-03, 02:14:00,VALID,916.488,VALID,0,VALID,92.7445,VALID,0,VALID,19.466,VALID,102,VALID,0.362723,
2005-04-03, 02:15:00,VALID,916.481,VALID,0,VALID,92.8805,VALID,0,VALID,19.4531,VALID,102,VALID,0.46875,
2005-04-03, 02:16:00,VALID,916.482,VALID,0,VALID,92.9874,VALID,0,VALID,19.433,VALID,102,VALID,0.371626,
2005-04-03, 02:17:00,VALID,916.475,VALID,0,VALID,93.3218,VALID,0.0339617,VALID,19.4563,VALID,105,VALID,0.383878,
2005-04-03, 02:18:00,VALID,916.478,VALID,0,VALID,93.4642,VALID,-0.0169808,VALID,19.4342,VALID,107,VALID,0.533918,
2005-04-03, 02:19:00,VALID,916.475,VALID,0,VALID,93.482,VALID,0,VALID,19.4049,VALID,107,VALID,0.533668,
2005-04-03, 02:20:00,VALID,916.493,VALID,0,VALID,93.7681,VALID,0,VALID,19.3918,VALID,107,VALID,0.234197,
2005-04-03, 02:21:00,VALID,916.477,VALID,0,VALID,93.9233,VALID,0,VALID,19.392,VALID,107,VALID,0,
2005-04-03, 02:22:00,VALID,916.468,VALID,0,VALID,93.7033,VALID,0,VALID,19.3977,VALID,107,VALID,0.000545058,
2005-04-03, 02:23:00,VALID,916.455,VALID,0,VALID,94.1127,VALID,0,VALID,19.4141,VALID,107,VALID,0.000372024,
2005-04-03, 02:24:00,VALID,916.461,VALID,0,VALID,93.6359,VALID,0,VALID,19.4109,VALID,107,VALID,0,
2005-04-03, 02:25:00,VALID,916.44,VALID,0,VALID,94.1534,VALID,0,VALID,19.4141,VALID,107,VALID,0.242001,
2005-04-03, 02:26:00,VALID,916.434,VALID,0,VALID,93.9576,VALID,0,VALID,19.3977,VALID,107,VALID,0.0261009,
2005-04-03, 02:27:00,VALID,916.43,VALID,0,VALID,93.6982,VALID,0,VALID,19.3786,VALID,107,VALID,0,
2005-04-03, 02:28:00,VALID,916.428,VALID,0,VALID,92.1608,VALID,0.0169808,VALID,19.3761,VALID,107,VALID,0.18129,
2005-04-03, 02:29:00,VALID,916.443,VALID,0,VALID,91.4818,VALID,0,VALID,19.3694,VALID,107,VALID,0.355015,
2005-04-03, 02:30:00,VALID,916.464,VALID,0,VALID,91.3953,VALID,-0.0169808,VALID,19.3915,VALID,107,VALID,0.407552,
2005-04-03, 02:31:00,VALID,916.48,VALID,0,VALID,92.0527,VALID,0,VALID,19.4203,VALID,107,VALID,0.063244,
2005-04-03, 02:32:00,VALID,916.482,VALID,0,VALID,92.7496,VALID,-0.0169808,VALID,19.4434,VALID,107,VALID,0.359545,
2005-04-03, 02:33:00,VALID,916.487,VALID,0,VALID,92.8564,VALID,0,VALID,19.4441,VALID,107,VALID,0.419531,
2005-04-03, 02:34:00,VALID,916.481,VALID,0,VALID,93.8533,VALID,0,VALID,19.4076,VALID,107,VALID,0.47247,
2005-04-03, 02:35:00,VALID,916.476,VALID,0,VALID,93.6842,VALID,0.0169808,VALID,19.3788,VALID,107,VALID,0.698038,
2005-04-03, 02:36:00,VALID,916.468,VALID,0,VALID,93.2849,VALID,0,VALID,19.314,VALID,107,VALID,0.76726,
2005-04-03, 02:37:00,VALID,916.465,VALID,0,VALID,93.7757,VALID,0.0169808,VALID,19.2884,VALID,107,VALID,0.653706,
2005-04-03, 02:38:00,VALID,916.459,VALID,0,VALID,94.4281,VALID,0,VALID,19.2524,VALID,105,VALID,0.686756,
2005-04-03, 02:39:00,VALID,916.431,VALID,0,VALID,94.938,VALID,0,VALID,19.2298,VALID,90,VALID,0.515625,
2005-04-03, 02:40:00,VALID,916.435,VALID,0,VALID,94.9939,VALID,0,VALID,19.201,VALID,104,VALID,0.701322,
2005-04-03, 02:41:00,VALID,916.409,VALID,0,VALID,95.219,VALID,-0.0169808,VALID,19.1754,VALID,111,VALID,0.739826,
2005-04-03, 02:42:00,VALID,916.41,VALID,0,VALID,95.5153,VALID,0,VALID,19.1625,VALID,117,VALID,0.730564,
2005-04-03, 02:43:00,VALID,916.393,VALID,0,VALID,95.6895,VALID,0,VALID,19.1464,VALID,118,VALID,0.73402,
2005-04-03, 02:44:00,VALID,916.385,VALID,0,VALID,95.7251,VALID,0,VALID,19.1404,VALID,122,VALID,0.86795,
2005-04-03, 02:45:00,VALID,916.373,VALID,0,VALID,95.7556,VALID,0,VALID,19.1302,VALID,122,VALID,0.895275,
2005-04-03, 02:46:00,VALID,916.372,VALID,0,VALID,95.907,VALID,0.0169808,VALID,19.13,VALID,116,VALID,0.858648,
2005-04-03, 02:47:00,VALID,916.368,VALID,0,VALID,96.0379,VALID,0,VALID,19.1402,VALID,115,VALID,0.879383,
2005-04-03, 02:48:00,VALID,916.339,VALID,0,VALID,96.1943,VALID,-0.0169808,VALID,19.1431,VALID,107,VALID,0.497275,
2005-04-03, 02:49:00,VALID,916.328,VALID,0,VALID,96.305,VALID,0,VALID,19.1563,VALID,106,VALID,0.498001,
2005-04-03, 02:50:00,VALID,916.324,VALID,0,VALID,96.2427,VALID,0,VALID,19.1394,VALID,104,VALID,0.609747,
2005-04-03, 02:51:00,VALID,916.314,VALID,0,VALID,95.8523,VALID,0.0169808,VALID,19.1231,VALID,91,VALID,0.655878,
2005-04-03, 02:52:00,VALID,916.301,VALID,0,VALID,95.6081,VALID,0.0169808,VALID,19.1332,VALID,91,VALID,0.56994,
2005-04-03, 02:53:00,VALID,916.287,VALID,0,VALID,95.6488,VALID,0.0169808,VALID,19.1528,VALID,101,VALID,0.563542,
2005-04-03, 02:54:00,VALID,916.275,VALID,0,VALID,94.8528,VALID,0,VALID,19.1496,VALID,107,VALID,0.646205,
2005-04-03, 02:55:00,VALID,916.254,VALID,0,VALID,94.1115,VALID,0,VALID,19.1531,VALID,109,VALID,0.672828,
2005-04-03, 02:56:00,VALID,916.249,VALID,0,VALID,93.8368,VALID,0,VALID,19.1724,VALID,112,VALID,0.656822,
2005-04-03, 02:57:00,VALID,916.256,VALID,0,VALID,93.9601,VALID,0,VALID,19.195,VALID,113,VALID,0.832564,
2005-04-03, 02:58:00,VALID,916.249,VALID,0,VALID,94.2551,VALID,0.0169808,VALID,19.2139,VALID,113,VALID,0.61543,
2005-04-03, 02:59:00,VALID,916.254,VALID,0,VALID,93.8966,VALID,0,VALID,19.2107,VALID,113,VALID,0.490663,
2005-04-03, 03:00:00,VALID,916.267,VALID,0,VALID,93.6104,VALID,0,VALID,19.2271,VALID,113,VALID,0.609189,
2005-04-03, 03:01:00,VALID,916.267,VALID,0,VALID,92.5067,VALID,0,VALID,19.2303,VALID,113,VALID,0.719444,
2005-04-03, 03:02:00,VALID,916.257,VALID,0,VALID,91.9586,VALID,0,VALID,19.2755,VALID,113,VALID,0.443266,
2005-04-03, 03:03:00,VALID,916.27,VALID,0,VALID,91.3979,VALID,0.0169808,VALID,19.3078,VALID,113,VALID,0.478237,
2005-04-03, 03:04:00,VALID,916.272,VALID,0,VALID,90.2598,VALID,0,VALID,19.3408,VALID,113,VALID,0.550604,
2005-04-03, 03:05:00,VALID,916.263,VALID,0,VALID,90.6692,VALID,0,VALID,19.3761,VALID,113,VALID,0.248633,
2005-04-03, 03:06:00,VALID,916.26,VALID,0,VALID,90.7125,VALID,0,VALID,19.4114,VALID,104,VALID,0.532012,
2005-04-03, 03:07:00,VALID,916.248,VALID,0,VALID,90.9274,VALID,-0.0169808,VALID,19.4434,VALID,99,VALID,0.144259,
2005-04-03, 03:08:00,VALID,916.245,VALID,0,VALID,90.097,VALID,-0.0169808,VALID,19.4305,VALID,100,VALID,0.263808,
2005-04-03, 03:09:00,VALID,916.249,VALID,0,VALID,90.6336,VALID,-0.0169808,VALID,19.4469,VALID,100,VALID,0.136905,
2005-04-03, 03:10:00,VALID,916.246,VALID,0,VALID,90.055,VALID,0,VALID,19.4136,VALID,100,VALID,0.440168,
2005-04-03, 03:11:00,VALID,916.219,VALID,0,VALID,89.8338,VALID,0,VALID,19.3982,VALID,101,VALID,0.392773,
2005-04-03, 03:12:00,VALID,916.212,VALID,0,VALID,90.3068,VALID,0,VALID,19.4052,VALID,101,VALID,0.20149,
2005-04-03, 03:13:00,VALID,916.207,VALID,0,VALID,90.8345,VALID,-0.0339617,VALID,19.3985,VALID,101,VALID,0.0479651,
2005-04-03, 03:14:00,VALID,916.212,VALID,0,VALID,91.1283,VALID,0,VALID,19.3922,VALID,101,VALID,0.10119,
2005-04-03, 03:15:00,VALID,916.211,VALID,0,VALID,90.8638,VALID,-0.0169808,VALID,19.3759,VALID,101,VALID,0.188349,
2005-04-03, 03:16:00,VALID,916.21,VALID,0,VALID,91.1257,VALID,-0.0339617,VALID,19.35,VALID,101,VALID,0.273438,
2005-04-03, 03:17:00,VALID,916.201,VALID,0,VALID,90.9299,VALID,-0.0339617,VALID,19.3505,VALID,101,VALID,0.255035,
2005-04-03, 03:18:00,VALID,916.211,VALID,0,VALID,91.0431,VALID,-0.0339617,VALID,19.3408,VALID,101,VALID,0.0790551,
2005-04-03, 03:19:00,VALID,916.208,VALID,0,VALID,92.2829,VALID,-0.0339617,VALID,19.3334,VALID,101,VALID,0.0261052,
2005-04-03, 03:20:00,VALID,916.212,VALID,0,VALID,92.1328,VALID,-0.0339617,VALID,19.2954,VALID,101,VALID,0,
2005-04-03, 03:21:00,VALID,916.198,VALID,0,VALID,92.2842,VALID,-0.0339617,VALID,19.2469,VALID,101,VALID,0,
2005-04-03, 03:22:00,VALID,916.194,VALID,0,VALID,92.8297,VALID,-0.0339617,VALID,19.2117,VALID,101,VALID,0,
2005-04-03, 03:23:00,VALID,916.189,VALID,0,VALID,93.496,VALID,-0.0169808,VALID,19.1794,VALID,101,VALID,0,
2005-04-03, 03:24:00,VALID,916.178,VALID,0,VALID,93.6181,VALID,-0.0169808,VALID,19.1404,VALID,101,VALID,0,
2005-04-03, 03:25:00,VALID,916.168,VALID,0,VALID,93.9372,VALID,0,VALID,19.1275,VALID,101,VALID,0,
2005-04-03, 03:26:00,VALID,916.16,VALID,0,VALID,93.8775,VALID,-0.0169808,VALID,19.0984,VALID,101,VALID,0,
2005-04-03, 03:27:00,VALID,916.136,VALID,0,VALID,93.9665,VALID,-0.0339617,VALID,19.0468,VALID,101,VALID,0,
2005-04-03, 03:28:00,VALID,916.141,VALID,0,VALID,93.3917,VALID,-0.0339617,VALID,19.0184,VALID,101,VALID,0,
2005-04-03, 03:29:00,VALID,916.126,VALID,0,VALID,92.0311,VALID,-0.0169808,VALID,18.9829,VALID,101,VALID,0,
2005-04-03, 03:30:00,VALID,916.134,VALID,0,VALID,90.2153,VALID,0,VALID,18.9601,VALID,101,VALID,0,
2005-04-03, 03:31:00,VALID,916.136,VALID,0,VALID,90.2776,VALID,0,VALID,18.9792,VALID,101,VALID,0,
2005-04-03, 03:32:00,VALID,916.139,VALID,0,VALID,91.5988,VALID,0,VALID,19.0279,VALID,101,VALID,0,
2005-04-03, 03:33:00,VALID,916.136,VALID,0,VALID,88.6321,VALID,-0.0169808,VALID,18.9919,VALID,101,VALID,0,
2005-04-03, 03:34:00,VALID,916.12,VALID,0,VALID,87.2422,VALID,-0.0169808,VALID,19.0048,VALID,101,VALID,0,
2005-04-03, 03:35:00,VALID,916.115,VALID,0,VALID,87.433,VALID,-0.0169808,VALID,19.0786,VALID,101,VALID,0,
2005-04-03, 03:36:00,VALID,916.117,VALID,0,VALID,89.3976,VALID,-0.0169808,VALID,19.1498,VALID,101,VALID,0,
2005-04-03, 03:37:00,VALID,916.112,VALID,0,VALID,91.0151,VALID,-0.0339617,VALID,19.1858,VALID,101,VALID,0,
2005-04-03, 03:38:00,VALID,916.115,VALID,0,VALID,91.3801,VALID,-0.0679233,VALID,19.1697,VALID,101,VALID,0,